Ionia, MI

3:07 PM EDT on April 26, 2017 (GMT -0400)
Ionia

Weather History for KY70 - February, 2013

Change the Weather History Date:

Saturday, February 2, 2013

  Actual Average (KGRR) Record (KGRR)
Temperature  
Mean Temperature 13 °F -  
Max Temperature 20 °F 30 °F 48 °F (1903)
Min Temperature 6 °F 14 °F -11 °F (1971)
Degree Days  
Heating Degree Days 52    
Moisture  
Dew Point 8 °F    
Average Humidity 70    
Maximum Humidity 80    
Minimum Humidity 55    
Precipitation  
Precipitation 0.00 in - - ()
Sea Level Pressure  
Sea Level Pressure 30.01 in    
Wind  
Wind Speed 8 mph (WNW)    
Max Wind Speed 13 mph    
Max Gust Speed 16 mph    
Visibility 6 miles    
Events Snow    
Averages and records for this station are not official NWS values.
T = Trace of Precipitation, MM = Missing Value Source: NWS Daily Summary

Daily Weather History Graph

Daily Weather History Graph

Search for Another Location

Airport or City:

Trip Planner

Search our weather history database for the weather conditions in past years. The results will help you decide how hot, cold, wet, or windy it might be!

Date:

Astronomy

Feb. 02, 2013 Rise Set
Actual Time 7:53 AM EST 5:54 PM EST
Civil Twilight 7:23 AM EST 6:24 PM EST
Nautical Twilight 6:49 AM EST 6:58 PM EST
Astronomical Twilight 6:16 AM EST 7:31 PM EST
Moon 12:10 AM EST (2/2) 10:52 AM EST (2/2)
Length of Visible Light 11h 00m
Length of Day
10h 01m
Waning Gibbous, 60% of the Moon is Illuminated
Feb 2
Waning Gibbous
Feb 3
Last Quarter
Feb 10
New
Feb 17
First Quarter
Feb 25
Full

Hourly Weather History & Observations

Time (EST) Temp. Windchill Dew Point Humidity Pressure Visibility Wind Dir Wind Speed Gust Speed Precip Events Conditions
12:14 AM 15.8 °F 2.7 °F 8.1 °F 72% 30.12 in 5.0 mi SW 11.5 mph - N/A Snow Light Snow
12:34 AM 15.8 °F 2.7 °F 8.6 °F 73% 30.12 in 4.0 mi SW 11.5 mph 16.1 mph N/A Snow Light Snow
12:54 AM 16.0 °F 2.9 °F 9.1 °F 74% 30.12 in 3.0 mi SSW 11.5 mph - N/A Snow Light Snow
1:14 AM 15.8 °F 3.4 °F 9.3 °F 76% 30.11 in 3.0 mi SSW 10.4 mph - N/A Snow Light Snow
1:34 AM 15.6 °F 2.5 °F 9.0 °F 75% 30.10 in 2.5 mi SSW 11.5 mph - N/A Snow Light Snow
1:54 AM 15.8 °F 3.4 °F 9.1 °F 75% 30.09 in 3.0 mi SSW 10.4 mph - N/A Snow Light Snow
2:14 AM 15.8 °F 2.1 °F 9.0 °F 74% 30.09 in 3.0 mi SSW 12.7 mph - N/A Snow Light Snow
2:34 AM 15.8 °F 3.4 °F 8.8 °F 74% 30.09 in 4.0 mi SSW 10.4 mph - N/A Snow Light Snow
2:54 AM 15.8 °F 2.7 °F 9.3 °F 76% 30.09 in 2.5 mi SSW 11.5 mph 16.1 mph N/A Snow Light Snow
3:14 AM 16.2 °F 3.2 °F 9.5 °F 75% 30.08 in 3.0 mi SSW 11.5 mph - N/A Snow Light Snow
3:34 AM 16.5 °F 3.0 °F 10.2 °F 76% 30.07 in 2.5 mi SSW 12.7 mph 16.1 mph N/A Snow Light Snow
4:14 AM 16.9 °F 4.1 °F 10.4 °F 76% 30.04 in 2.5 mi SSW 11.5 mph - N/A Snow Light Snow
4:34 AM 16.7 °F 3.8 °F 10.4 °F 76% 30.04 in 2.0 mi SSW 11.5 mph - N/A Snow Light Snow
4:53 AM 17.1 °F 6.6 °F 10.6 °F 76% 30.03 in 3.0 mi SW 8.1 mph - N/A Snow Light Snow
5:14 AM 17.4 °F 7.1 °F 10.9 °F 76% 30.02 in 2.5 mi SSW 8.1 mph - N/A Snow Light Snow
5:33 AM 17.6 °F 6.4 °F 11.3 °F 76% 30.02 in 1.8 mi SSW 9.2 mph - N/A Snow Light Snow
5:54 AM 18.1 °F 7.9 °F 12.0 °F 77% 30.00 in 1.8 mi SSW 8.1 mph - N/A Snow Light Snow
6:13 AM 18.3 °F 9.1 °F 12.2 °F 77% 30.00 in 1.8 mi SW 6.9 mph - N/A Snow Light Snow
6:34 AM 18.5 °F 6.8 °F 12.7 °F 78% 30.00 in 1.5 mi SW 10.4 mph - N/A Snow Light Snow
7:14 AM 18.7 °F 10.6 °F 12.9 °F 78% 29.99 in 2.0 mi SW 5.8 mph - N/A Snow Light Snow
7:33 AM 18.9 °F 10.8 °F 13.1 °F 78% 29.98 in 1.8 mi SSW 5.8 mph - N/A Snow Light Snow
7:54 AM 19.0 °F 12.3 °F 13.5 °F 79% 29.98 in 1.0 mi SSW 4.6 mph - N/A Snow Light Snow
8:13 AM 19.0 °F - 13.6 °F 79% 29.98 in 0.5 mi Calm Calm - N/A Snow Snow
8:34 AM 19.2 °F - 14.0 °F 80% 29.98 in 0.5 mi Calm Calm - N/A Snow Light Snow
8:53 AM 19.2 °F - 14.0 °F 80% 29.98 in 0.8 mi Calm Calm - N/A Snow Light Snow
9:14 AM 19.4 °F - 14.0 °F 80% 29.98 in 2.0 mi Calm Calm - N/A Snow Light Snow
9:33 AM 19.8 °F 14.7 °F 14.2 °F 79% 29.98 in 0.8 mi North 3.5 mph - N/A Snow Light Snow
9:54 AM 20.1 °F 15.2 °F 14.5 °F 79% 29.97 in 1.0 mi North 3.5 mph - N/A Snow Light Snow
10:13 AM 20.3 °F 13.8 °F 14.5 °F 78% 29.97 in 1.0 mi NNE 4.6 mph - N/A Snow Light Snow
10:34 AM 20.3 °F 10.6 °F 13.1 °F 74% 29.97 in 3.0 mi North 8.1 mph - N/A Snow Light Snow
10:53 AM 20.3 °F 12.5 °F 12.4 °F 71% 29.97 in 5.0 mi North 5.8 mph - N/A Snow Light Snow
11:14 AM 20.3 °F 12.5 °F 12.0 °F 70% 29.98 in 3.0 mi NNE 5.8 mph - N/A Snow Light Snow
11:33 AM 20.7 °F 13.0 °F 12.0 °F 69% 29.98 in 5.0 mi NNE 5.8 mph - N/A Snow Light Snow
11:54 AM 20.3 °F 10.6 °F 10.6 °F 66% 29.97 in 7.0 mi NNE 8.1 mph - N/A Snow Light Snow
12:14 PM 20.7 °F 11.0 °F 10.0 °F 64% 29.97 in 10.0 mi NNE 8.1 mph - N/A   Overcast
12:33 PM 20.5 °F 12.8 °F 9.7 °F 63% 29.97 in 10.0 mi NE 5.8 mph - N/A   Overcast
12:54 PM 20.3 °F 13.8 °F 9.9 °F 64% 29.96 in 7.0 mi NNE 4.6 mph - N/A   Overcast
1:13 PM 20.3 °F 13.8 °F 9.3 °F 63% 29.96 in 10.0 mi NNW 4.6 mph - N/A   Overcast
1:34 PM 20.3 °F 13.8 °F 9.5 °F 63% 29.96 in 10.0 mi North 4.6 mph - N/A   Overcast
1:53 PM 20.3 °F 12.5 °F 9.5 °F 63% 29.95 in 7.0 mi North 5.8 mph - N/A   Overcast
2:14 PM 20.1 °F 12.3 °F 8.4 °F 61% 29.95 in 10.0 mi NNW 5.8 mph - N/A   Overcast
2:33 PM 20.1 °F 13.6 °F 8.6 °F 61% 29.95 in 7.0 mi NNW 4.6 mph - N/A Snow Light Snow
2:54 PM 20.3 °F 11.5 °F 9.1 °F 62% 29.95 in 10.0 mi NNW 6.9 mph - N/A Snow Light Snow
3:13 PM 20.1 °F 12.3 °F 7.7 °F 59% 29.96 in 7.0 mi North 5.8 mph - N/A   Overcast
3:34 PM 20.1 °F 13.6 °F 7.2 °F 57% 29.96 in 10.0 mi North 4.6 mph - N/A   Overcast
3:53 PM 19.9 °F 11.1 °F 7.2 °F 58% 29.97 in 10.0 mi NNE 6.9 mph - N/A   Overcast
4:14 PM 19.9 °F 11.1 °F 7.7 °F 59% 29.97 in 10.0 mi NNE 6.9 mph - N/A   Overcast
4:34 PM 19.8 °F 10.8 °F 6.4 °F 56% 29.98 in 10.0 mi North 6.9 mph - N/A   Overcast
4:54 PM 19.4 °F 11.5 °F 5.4 °F 55% 29.98 in 10.0 mi NNW 5.8 mph - N/A   Overcast
5:13 PM 19.0 °F 11.1 °F 5.5 °F 56% 29.98 in 10.0 mi NW 5.8 mph - N/A   Overcast
5:34 PM 19.0 °F 13.9 °F 5.9 °F 57% 29.99 in 10.0 mi North 3.5 mph - N/A   Overcast
5:54 PM 18.5 °F 10.4 °F 6.8 °F 60% 30.00 in 10.0 mi North 5.8 mph - N/A   Overcast
6:14 PM 18.5 °F 13.3 °F 6.8 °F 60% 30.00 in 10.0 mi North 3.5 mph - N/A   Overcast
6:33 PM 18.0 °F 12.7 °F 4.3 °F 55% 30.00 in 10.0 mi North 3.5 mph - N/A   Overcast
7:13 PM 15.3 °F - 3.6 °F 60% 30.02 in 10.0 mi Calm Calm - N/A   Mostly Cloudy
7:34 PM 15.4 °F - 3.0 °F 58% 30.02 in 10.0 mi Calm Calm - N/A   Clear
7:53 PM 12.0 °F 5.9 °F 3.2 °F 68% 30.02 in 10.0 mi North 3.5 mph - N/A   Clear
8:14 PM 10.2 °F - 2.5 °F 71% 30.02 in 10.0 mi Calm Calm - N/A   Clear
8:34 PM 12.6 °F - 4.1 °F 69% 30.02 in 10.0 mi Calm Calm - N/A   Clear
8:54 PM 10.4 °F - 3.0 °F 72% 30.02 in 10.0 mi Calm Calm - N/A   Clear
9:14 PM 7.3 °F - 1.9 °F 79% 30.02 in 10.0 mi Calm Calm - N/A   Clear
9:34 PM 7.9 °F - 2.3 °F 78% 30.02 in 10.0 mi Calm Calm - N/A   Clear
9:53 PM 7.3 °F 0.5 °F 1.2 °F 76% 30.02 in 10.0 mi West 3.5 mph - N/A   Clear
10:14 PM 6.8 °F -0.1 °F 0.5 °F 75% 30.02 in 10.0 mi West 3.5 mph - N/A   Clear
10:34 PM 7.2 °F 0.3 °F 0.7 °F 75% 30.01 in 10.0 mi West 3.5 mph - N/A   Clear
10:54 PM 7.9 °F 1.2 °F 1.8 °F 76% 30.00 in 10.0 mi West 3.5 mph - N/A   Clear
11:14 PM 7.9 °F - 1.8 °F 76% 29.99 in 10.0 mi Calm Calm - N/A   Scattered Clouds
11:34 PM 6.4 °F - 0.9 °F 78% 29.99 in 10.0 mi Calm Calm - N/A   Scattered Clouds